Location: Arcones
(41.1182°N, 3.7238°W)
Time: 08:12:18
(UTC+00:00)

IRAS Rocket - Pass Details

Date: 20 March 2026
Orbit: 845 x 876 km, 100.1° (Epoch: 18 April)

Event Time Altitude Azimuth Distance (km) Brightness Sun altitude
Rises 19:26:23 0° 153° (SSE) 3,450 7.0 -11.9°
Reaches altitude 10° 19:28:47 10° 150° (SSE) 2,513 6.3 -12.4°
Maximum altitude 19:34:16 62° 70° (ENE) 975 4.3 -13.4°
Drops below altitude 10° 19:39:46 10° 352° (N) 2,511 6.9 -14.4°
Sets 19:42:09 0° 349° (NNW) 3,447 7.7 -14.8°
